CW2433 Weather Reports


time (UTC)temp
C
wind
direction
speed
KPH
gust
KPH
rain 1hr
cm
rain 24hr
cm
rain mn
cm
humidity
%
barometer
mb
20260507135009 13 212 1.6 9.7 0.00 0.00 0.00 61 1013.6
20260507134510 13 254 3.2 9.7 0.00 0.00 0.00 61 1013.7
20260507134009 12 227 1.6 4.8 0.00 0.00 0.00 62 1013.7
20260507133510 12 179 0.0 4.8 0.00 0.00 0.00 63 1013.7
20260507132510 12 207 1.6 8.0 0.00 0.00 0.00 65 1013.7
20260507132010 12 200 3.2 8.0 0.00 0.00 0.00 66 1013.7
20260507131010 11 214 1.6 8.0 0.00 0.00 0.00 68 1013.9
20260507130510 11 182 1.6 4.8 0.00 0.00 0.00 69 1013.9
20260507130010 11 226 1.6 8.0 0.00 0.00 0.00 69 1013.7
20260507125509 10 267 3.2 8.0 0.00 0.00 0.00 71 1013.8
20260507125011 10 234 3.2 4.8 0.00 0.00 0.00 72 1013.8
20260507124512 10 196 1.6 4.8 0.00 0.00 0.00 72 1013.7
20260507124010 10 208 1.6 4.8 0.00 0.00 0.00 73 1013.7
20260507123010 9 234 3.2 4.8 0.00 0.00 0.00 74 1013.8
20260507122510 8 224 0.0 4.8 0.00 0.00 0.00 75 1013.8
20260507122011 8 221 1.6 4.8 0.00 0.00 0.00 75 1013.9
20260507121510 8 232 1.6 4.8 0.00 0.00 0.00 79 1013.9
20260507121011 8 195 0.0 4.8 0.00 0.00 0.00 75 1014.0
20260507120510 8 284 1.6 4.8 0.00 0.00 0.00 75 1013.9
20260507120009 8 242 1.6 4.8 0.00 0.00 0.00 75 1013.9
20260507115509 8 233 1.6 4.8 0.00 0.00 0.00 75 1013.9
20260507115010 8 263 1.6 3.2 0.00 0.00 0.00 74 1013.9
20260507114509 8 263 1.6 8.0 0.00 0.00 0.00 74 1013.9
20260507114010 8 257 1.6 8.0 0.00 0.00 0.00 74 1013.9
20260507113509 8 215 0.0 4.8 0.00 0.00 0.00 74 1013.9
20260507113009 8 302 1.6 4.8 0.00 0.00 0.00 74 1013.9
20260507112508 8 304 1.6 4.8 0.00 0.00 0.00 74 1013.9
20260507112009 8 273 1.6 4.8 0.00 0.00 0.00 74 1014.0
20260507111510 8 198 1.6 4.8 0.00 0.00 0.00 74 1013.9
20260507111009 8 221 1.6 4.8 0.00 0.00 0.00 74 1013.9
20260507110509 8 216 1.6 4.8 0.00 0.00 0.00 73 1013.8
20260507110008 8 231 1.6 8.0 0.00 0.00 0.00 73 1013.8
20260507105009 8 201 0.0 3.2 0.00 0.00 0.00 73 1013.7
20260507104510 8 216 0.0 3.2 0.00 0.00 0.00 73 1013.7
20260507104009 8 233 0.0 4.8 0.00 0.00 0.00 72 1013.7
20260507103009 8 240 1.6 8.0 0.00 0.00 0.00 72 1013.7
20260507102509 8 207 1.6 4.8 0.00 0.00 0.00 72 1013.7
20260507102009 8 222 1.6 4.8 0.00 0.00 0.00 72 1013.7
20260507100509 8 217 1.6 4.8 0.00 0.00 0.00 71 1013.7
20260507100009 8 0 1.6 8.0 0.00 0.00 0.00 71 1013.8
20260507095509 8 195 1.6 8.0 0.00 0.00 0.00 71 1013.9
20260507095009 8 0 1.6 8.0 0.00 0.00 0.00 71 1013.9
20260507094508 8 0 3.2 8.0 0.00 0.00 0.00 71 1013.9
20260507094009 8 188 3.2 8.0 0.00 0.00 0.00 71 1014.0
20260507093509 8 225 3.2 8.0 0.00 0.00 0.00 71 1014.0
20260507093010 8 213 3.2 4.8 0.00 0.00 0.00 71 1014.1
20260507092510 8 211 1.6 4.8 0.00 0.00 0.00 71 1014.2
20260507091510 8 229 1.6 4.8 0.00 0.00 0.00 71 1014.3
20260507091010 8 229 1.6 4.8 0.00 0.00 0.00 70 1014.3
20260507090010 8 222 1.6 4.8 0.00 0.00 0.00 70 1014.4
20260507085510 8 252 3.2 4.8 0.00 0.00 0.00 70 1014.6
20260507085011 8 222 1.6 8.0 0.00 0.00 0.00 70 1014.6
20260507084510 8 219 1.6 8.0 0.00 0.00 0.00 70 1014.7
20260507084010 7 227 1.6 4.8 0.00 0.00 0.00 70 1014.9
20260507083010 7 204 1.6 4.8 0.00 0.00 0.00 69 1015.0
20260507082510 7 226 1.6 4.8 0.00 0.00 0.00 69 1015.0
20260507082011 7 233 1.6 4.8 0.00 0.00 0.00 68 1015.1
20260507081510 7 223 1.6 4.8 0.00 0.00 0.00 66 1015.1
20260507081010 7 248 0.0 4.8 0.00 0.00 0.00 66 1015.2
20260507080509 7 249 1.6 3.2 0.00 0.00 0.00 66 1015.3
20260507080009 7 192 0.0 1.6 0.00 0.00 0.00 66 1015.3
20260507075509 7 192 0.0 1.6 0.00 0.00 0.00 65 1015.5
20260507074512 7 192 0.0 3.2 0.00 0.00 0.00 65 1015.5
20260507074010 7 192 0.0 3.2 0.00 0.00 0.00 65 1015.5
20260507073510 6 134 0.0 3.2 0.00 0.00 0.00 65 1015.6
20260507072009 6 135 0.0 0.0 0.00 0.00 0.00 64 1015.8
20260507071010 6 136 0.0 1.6 0.00 0.00 0.00 64 1016.0
20260507070508 6 136 0.0 1.6 0.00 0.00 0.00 63 1016.1
20260507065509 6 136 0.0 1.6 0.00 0.00 0.00 62 1016.2
20260507065009 6 137 0.0 1.6 0.00 0.00 0.00 62 1016.4
20260507064509 7 137 0.0 0.0 0.00 0.00 0.00 61 1016.4
20260507064009 7 137 0.0 0.0 0.00 0.00 0.00 61 1016.4
20260507063509 7 137 0.0 0.0 0.00 0.00 0.00 61 1016.4
20260507063010 7 137 0.0 0.0 0.00 0.00 0.00 62 1016.4
20260507062509 7 137 0.0 1.6 0.00 0.00 0.00 62 1016.6
20260507062010 7 137 0.0 3.2 0.00 0.00 0.00 62 1016.6
20260507061509 7 137 0.0 3.2 0.00 0.00 0.00 62 1016.6
20260507061009 7 137 0.0 3.2 0.00 0.00 0.00 62 1016.7
20260507060508 7 137 1.6 4.8 0.00 0.00 0.00 62 1016.7
20260507055508 7 137 0.0 3.2 0.00 0.00 0.00 63 1016.7
20260507054512 7 137 0.0 3.2 0.00 0.00 0.00 64 1016.7
20260507054009 7 137 1.6 3.2 0.00 0.00 0.00 64 1016.8
20260507053509 7 137 1.6 3.2 0.00 0.00 0.00 65 1016.8
20260507053011 7 137 0.0 3.2 0.00 0.00 0.00 65 1016.8
20260507052508 6 137 0.0 3.2 0.00 0.00 0.00 66 1016.9
20260507052010 6 137 0.0 3.2 0.00 0.00 0.00 65 1016.8
20260507051510 6 137 0.0 4.8 0.00 0.00 0.00 65 1016.8
20260507051010 6 137 1.6 4.8 0.00 0.00 0.00 64 1016.8
20260507050010 6 100 0.0 3.2 0.00 0.00 0.00 63 1017.0
20260507045512 6 100 1.6 3.2 0.00 0.00 0.00 62 1016.9
20260507045011 6 341 0.0 1.6 0.00 0.00 0.00 61 1017.0
20260507044510 7 341 0.0 1.6 0.00 0.00 0.00 61 1017.0
20260507044011 7 341 0.0 1.6 0.00 0.00 0.00 61 1017.1
20260507043509 7 341 0.0 1.6 0.00 0.00 0.00 61 1017.2
20260507043011 7 341 0.0 3.2 0.00 0.00 0.00 61 1017.2
20260507042510 7 341 0.0 3.2 0.00 0.00 0.00 60 1017.2
20260507042011 7 341 0.0 3.2 0.00 0.00 0.00 59 1017.2
20260507040009 7 341 0.0 1.6 0.00 0.00 0.00 56 1017.5
20260507035508 7 341 0.0 1.6 0.00 0.00 0.00 55 1017.5
20260507035009 7 341 0.0 1.6 0.00 0.00 0.00 55 1017.5
20260507034509 8 341 0.0 1.6 0.00 0.00 0.00 55 1017.5
20260507034009 8 341 0.0 0.0 0.00 0.00 0.00 53 1017.6
20260507033509 8 341 0.0 0.0 0.00 0.00 0.00 53 1017.5
20260507033011 8 341 0.0 0.0 0.00 0.00 0.00 51 1017.5
20260507032508 8 341 0.0 0.0 0.00 0.00 0.00 51 1017.6
20260507032010 8 341 0.0 0.0 0.00 0.00 0.00 50 1017.7
20260507031510 8 342 0.0 0.0 0.00 0.00 0.00 48 1017.6
20260507031009 8 341 0.0 0.0 0.00 0.00 0.00 48 1017.6
20260507030509 9 341 0.0 0.0 0.00 0.00 0.00 47 1017.7
20260507030010 9 342 0.0 0.0 0.00 0.00 0.00 46 1017.7
20260507025509 9 341 0.0 0.0 0.00 0.00 0.00 47 1017.7
20260507025010 10 342 0.0 0.0 0.00 0.00 0.00 46 1017.7
20260507024010 10 342 0.0 0.0 0.00 0.00 0.00 45 1017.5
20260507023010 10 342 0.0 0.0 0.00 0.00 0.00 44 1017.4
20260507022510 11 342 0.0 0.0 0.00 0.00 0.00 43 1017.3
20260507021510 11 342 0.0 0.0 0.00 0.00 0.00 41 1017.3
20260507021010 11 342 0.0 0.0 0.00 0.00 0.00 40 1017.2
20260507020010 12 342 0.0 0.0 0.00 0.00 0.00 38 1017.2
20260507015509 12 342 0.0 0.0 0.00 0.00 0.00 37 1017.2
20260507014510 13 342 0.0 0.0 0.00 0.00 0.00 36 1017.2
20260507014011 13 342 0.0 0.0 0.00 0.00 0.00 35 1017.2
20260507013510 13 342 0.0 0.0 0.00 0.00 0.00 34 1017.1
20260507013010 13 342 0.0 0.0 0.00 0.00 0.00 33 1017.1
20260507012509 14 342 0.0 0.0 0.00 0.00 0.00 32 1017.0
20260507012010 14 342 0.0 0.0 0.00 0.00 0.00 31 1017.1
20260507011510 15 342 0.0 1.6 0.00 0.00 0.00 30 1017.1
20260507011010 15 316 0.0 4.8 0.00 0.00 0.00 30 1017.1
20260507010510 15 333 0.0 4.8 0.00 0.00 0.00 29 1017.0
20260507005509 15 296 0.0 8.0 0.00 0.00 0.00 29 1017.2
20260507005010 15 296 1.6 8.0 0.00 0.00 0.00 28 1017.2
20260507004510 15 253 1.6 4.8 0.00 0.00 0.00 28 1017.2
20260507004011 15 355 1.6 4.8 0.00 0.00 0.00 29 1017.2
20260507002509 15 277 1.6 8.0 0.00 0.00 0.00 29 1017.2
20260507002010 16 252 3.2 11.3 0.00 0.00 0.00 29 1017.3
20260507001011 15 268 3.2 9.7 0.00 0.00 0.00 29 1017.4
20260507000009 16 266 3.2 9.7 0.00 0.00 0.00 29 1017.7
20260506235010 16 290 4.8 9.7 0.00 0.00 0.00 29 1017.9
20260506234509 16 325 3.2 8.0 0.00 0.00 0.00 27 1017.9
20260506234010 16 302 1.6 11.3 0.00 0.00 0.00 27 1017.9
20260506233508 16 244 3.2 11.3 0.00 0.00 0.00 28 1017.9
20260506233009 16 308 3.2 11.3 0.00 0.00 0.00 29 1017.9
20260506232010 16 282 1.6 11.3 0.00 0.00 0.00 28 1017.9
20260506231510 16 278 3.2 9.7 0.00 0.00 0.00 29 1018.0
20260506231009 16 275 1.6 8.0 0.00 0.00 0.00 27 1018.0
20260506230508 16 277 3.2 14.5 0.00 0.00 0.00 27 1018.0
20260506230010 16 318 4.8 19.3 0.00 0.00 0.00 27 1018.0
20260506225010 16 269 8.0 19.3 0.00 0.00 0.00 29 1017.9
20260506224509 16 253 4.8 14.5 0.00 0.00 0.00 29 1018.0
20260506224009 16 254 3.2 14.5 0.00 0.00 0.00 29 1018.1
20260506223010 16 230 4.8 14.5 0.00 0.00 0.00 29 1018.2
20260506222509 16 259 3.2 16.1 0.00 0.00 0.00 30 1018.2
20260506222010 16 258 6.4 16.1 0.00 0.00 0.00 31 1018.3
20260506221510 16 256 3.2 16.1 0.00 0.00 0.00 30 1018.3
20260506220509 16 255 4.8 19.3 0.00 0.00 0.00 30 1018.3
20260506220010 16 257 4.8 19.3 0.00 0.00 0.00 29 1018.3
20260506215508 16 319 4.8 12.9 0.00 0.00 0.00 29 1018.3
20260506215010 16 275 4.8 19.3 0.00 0.00 0.00 29 1018.3
20260506214510 16 272 6.4 19.3 0.00 0.00 0.00 28 1018.4
20260506214010 16 249 8.0 19.3 0.00 0.00 0.00 29 1018.4
20260506213509 16 253 3.2 19.3 0.00 0.00 0.00 33 1018.5
20260506213011 15 299 4.8 19.3 0.00 0.00 0.00 30 1018.6
20260506212509 15 324 8.0 14.5 0.00 0.00 0.00 29 1018.6
20260506210509 15 255 4.8 20.9 0.00 0.00 0.00 31 1019.0
20260506210013 15 249 6.4 20.9 0.00 0.00 0.00 32 1018.8
20260506205509 15 256 1.6 11.3 0.00 0.00 0.00 31 1019.0
20260506205011 15 257 4.8 14.5 0.00 0.00 0.00 31 1019.1
20260506204510 15 256 3.2 14.5 0.00 0.00 0.00 31 1019.2
20260506204011 15 334 8.0 14.5 0.00 0.00 0.00 30 1019.2
20260506203510 15 250 4.8 11.3 0.00 0.00 0.00 30 1019.3
20260506203011 15 270 4.8 19.3 0.00 0.00 0.00 31 1019.3
20260506202510 15 258 4.8 19.3 0.00 0.00 0.00 31 1019.3
20260506202011 15 281 8.0 19.3 0.00 0.00 0.00 31 1019.4
20260506201510 15 297 3.2 9.7 0.00 0.00 0.00 30 1019.4
20260506201011 15 253 4.8 14.5 0.00 0.00 0.00 31 1019.4
20260506200010 15 262 3.2 16.1 0.00 0.00 0.00 30 1019.4
20260506195510 15 259 8.0 16.1 0.00 0.00 0.00 30 1019.6
20260506195011 15 260 3.2 16.1 0.00 0.00 0.00 30 1019.5
20260506194510 15 255 8.0 16.1 0.00 0.00 0.00 31 1019.4
20260506194010 15 213 4.8 14.5 0.00 0.00 0.00 34 1019.5
20260506193510 15 255 6.4 16.1 0.00 0.00 0.00 36 1019.7
20260506193010 14 277 6.4 16.1 0.00 0.00 0.00 32 1019.8
20260506192508 15 253 4.8 16.1 0.00 0.00 0.00 33 1019.8
20260506192009 15 261 4.8 16.1 0.00 0.00 0.00 33 1019.8
20260506191010 14 278 4.8 16.1 0.00 0.00 0.00 33 1019.9
20260506190508 14 274 6.4 16.1 0.00 0.00 0.00 33 1019.8
20260506190008 14 264 4.8 20.9 0.00 0.00 0.00 32 1019.9
20260506185509 14 335 4.8 20.9 0.00 0.00 0.00 34 1019.9
20260506185011 14 319 11.3 20.9 0.00 0.00 0.00 34 1019.9
20260506184508 14 256 4.8 19.3 0.00 0.00 0.00 34 1020.0
20260506183509 14 265 6.4 19.3 0.00 0.00 0.00 34 1020.3
20260506183010 14 300 1.6 16.1 0.00 0.00 0.00 38 1020.3
20260506182508 14 259 3.2 16.1 0.00 0.00 0.00 35 1020.1
20260506181512 14 251 8.0 19.3 0.00 0.00 0.00 34 1020.3
20260506181010 15 258 9.7 19.3 0.00 0.00 0.00 33 1020.3
20260506180509 15 262 4.8 19.3 0.00 0.00 0.00 37 1020.3
20260506175509 14 261 4.8 19.3 0.00 0.00 0.00 34 1020.5
20260506175010 14 342 4.8 19.3 0.00 0.00 0.00 35 1020.5
20260506174508 14 282 8.0 19.3 0.00 0.00 0.00 35 1020.6
20260506174009 14 303 6.4 19.3 0.00 0.00 0.00 36 1020.7
20260506173011 14 263 4.8 16.1 0.00 0.00 0.00 34 1020.9
20260506172509 14 278 3.2 16.1 0.00 0.00 0.00 35 1020.9
20260506171510 14 295 4.8 11.3 0.00 0.00 0.00 38 1020.9
20260506170509 13 257 9.7 20.9 0.00 0.00 0.00 36 1021.0
20260506170010 13 255 3.2 19.3 0.00 0.00 0.00 38 1021.0
20260506165509 13 258 6.4 19.3 0.00 0.00 0.00 35 1021.0
20260506165010 13 200 4.8 19.3 0.00 0.00 0.00 37 1021.0
20260506164510 13 283 4.8 19.3 0.00 0.00 0.00 39 1021.0
20260506164010 12 280 4.8 19.3 0.00 0.00 0.00 38 1021.1
20260506163510 12 255 3.2 16.1 0.00 0.00 0.00 40 1021.1
20260506163011 12 251 3.2 8.0 0.00 0.00 0.00 39 1021.2
20260506162010 12 264 4.8 14.5 0.00 0.00 0.00 40 1021.0
20260506161509 12 247 6.4 14.5 0.00 0.00 0.00 40 1021.1
20260506160510 11 321 4.8 14.5 0.00 0.00 0.00 41 1021.2
20260506160010 11 327 3.2 14.5 0.00 0.00 0.00 43 1021.1
20260506155510 11 249 4.8 14.5 0.00 0.00 0.00 43 1021.1
20260506155011 11 200 8.0 14.5 0.00 0.00 0.00 42 1021.1
20260506154509 11 268 4.8 14.5 0.00 0.00 0.00 41 1021.1
20260506154010 11 257 6.4 14.5 0.00 0.00 0.00 42 1021.0
20260506153010 11 318 4.8 19.3 0.00 0.00 0.00 42 1021.0
20260506152509 11 271 3.2 19.3 0.00 0.00 0.00 42 1021.1
20260506152010 11 253 4.8 16.1 0.00 0.00 0.00 43 1021.1
20260506151511 11 267 3.2 11.3 0.00 0.00 0.00 44 1021.1
20260506151010 10 250 4.8 19.3 0.00 0.00 0.00 44 1021.1
20260506150510 10 338 9.7 19.3 0.00 0.00 0.00 43 1021.1
20260506150008 10 18 3.2 16.1 0.00 0.00 0.00 44 1021.1
20260506145508 10 355 9.7 16.1 0.00 0.00 0.00 44 1021.3
20260506145009 10 351 8.0 14.5 0.00 0.00 0.00 45 1021.1
20260506144010 9 256 1.6 8.0 0.00 0.00 0.00 47 1021.3
20260506143509 9 311 1.6 9.7 0.00 0.00 0.00 48 1021.3
20260506143009 9 350 3.2 9.7 0.00 0.00 0.00 48 1021.3
20260506142509 9 12 4.8 8.0 0.00 0.00 0.00 50 1021.2
20260506142009 8 333 1.6 4.8 0.00 0.00 0.00 50 1021.2
20260506141508 8 288 1.6 4.8 0.00 0.00 0.00 52 1021.2
20260506141010 8 323 3.2 4.8 0.00 0.00 0.00 52 1021.1
20260506140509 8 346 1.6 4.8 0.00 0.00 0.00 52 1021.1
20260506140008 8 0 3.2 4.8 0.00 0.00 0.00 52 1021.1
20260506135508 8 0 1.6 4.8 0.00 0.00 0.00 53 1021.1